This is the latest recevied weather packets stored in our database for station/object OE5HCE. If no packets are shown the sender has not sent any weather packets the latest 10 day(s).
| Time | Temp. | Humidity | Pressure | Rain* | Wind** | Luminosity | Snow |
|---|---|---|---|---|---|---|---|
| 1777163465 | 11.67° C | 54% | 1018.1 hPa | 0 mm | - | 0 W/m² | - |
| 1777162560 | 11.67° C | 53% | 1017.9 hPa | 0 mm | - | 0 W/m² | - |
| 1777161655 | 12.22° C | 54% | 1017.9 hPa | 0 mm | - | 0 W/m² | - |
| 1777160765 | 12.22° C | 53% | 1017.8 hPa | 0 mm | - | 0 W/m² | - |
| 1777159850 | 12.22° C | 52% | 1017.7 hPa | 0 mm | - | 0 W/m² | - |
| 1777158946 | 12.78° C | 50% | 1017.5 hPa | 0 mm | - | 0 W/m² | - |
| 1777158049 | 12.78° C | 50% | 1017.7 hPa | 0 mm | - | 0 W/m² | - |
| 1777157144 | 12.78° C | 50% | 1017.7 hPa | 0 mm | - | 0 W/m² | - |
| 1777156240 | 13.33° C | 50% | 1017.5 hPa | 0 mm | - | 0 W/m² | - |
| 1777155336 | 13.33° C | 49% | 1017.4 hPa | 0 mm | - | 0 W/m² | - |
| 1777154437 | 13.33° C | 50% | 1017.3 hPa | 0 mm | - | 0 W/m² | - |
| 1777153531 | 13.33° C | 49% | 1017.3 hPa | 0 mm | - | 0 W/m² | - |
| 1777152637 | 13.33° C | 49% | 1017.2 hPa | 0 mm | - | 0 W/m² | - |
| 1777151730 | 13.33° C | 48% | 1017.1 hPa | 0 mm | - | 0 W/m² | - |
| 1777150829 | 13.89° C | 48% | 1017.1 hPa | 0 mm | - | 0 W/m² | - |
| 1777149928 | 13.89° C | 48% | 1017.1 hPa | 0 mm | - | 0 W/m² | - |
| 1777149028 | 14.44° C | 47% | 1017 hPa | 0 mm | - | 0 W/m² | - |
| 1777148127 | 14.44° C | 45% | 1016.8 hPa | 0 mm | - | 0 W/m² | - |
| 1777147245 | 15° C | 43% | 1016.7 hPa | 0 mm | - | 0 W/m² | - |
| 1777146327 | 15.56° C | 41% | 1016.8 hPa | 0 mm | - | 0 W/m² | - |
| 1777145443 | 16.11° C | 40% | 1016.6 hPa | 0 mm | - | 0 W/m² | - |
| 1777144531 | 16.11° C | 38% | 1016.5 hPa | 0 mm | - | 0 W/m² | - |
| 1777143631 | 16.67° C | 38% | 1016.3 hPa | 0 mm | - | 0 W/m² | - |
| 1777142725 | 17.22° C | 37% | 1016.1 hPa | 0 mm | - | 0 W/m² | - |
| 1777141824 | 17.78° C | 36% | 1015.8 hPa | 0 mm | - | 0 W/m² | - |
* Rain latest hour (hover to see other rain measurements)
** Current wind speed in m/s (hover to see current wind gust speed)